Regional Weather Roundup
Issued by NWS Wakefield, VA

Home | Current Version | Previous Version | Text Only | Print | Product List | Glossary Off
Versions: 1 2 3 4 5 6 7 8 9 10 11 12 13 14 15 16 17 18 19 20 21 22 23 24 25 26 27 28 29 30 31 32 33 34 35 36 37 38 39 40 41 42 43 44 45 46 47 48 49 50

000
ASUS41 KAKQ 060415
RWRAKQ

REGIONAL WEATHER ROUNDUP
NATIONAL WEATHER SERVICE WAKEFIELD VA
1100 PM EST FRI FEB 05 2016

Note: "fair" indicates few or no clouds below 12,000 feet with no
significant weather and/or obstructions to visibility. * = Denotes
station may not report precipitation (e.g., rain,snow,etc.),
thunder or fog.

VAZ042-051-052>054-056-060500-
NORTHERN VIRGINIA

CITY           SKY/WX    TMP DP  RH WIND       PRES   REMARKS
WASH NATIONAL  FAIR      35  17  47 NW7       30.41R
DULLES         MOCLDY    31  18  58 CALM      30.40R
FORT BELVOIR   FAIR      28  21  76 CALM      30.42R
QUANTICO       FAIR      31  23  72 NW6       30.43R
FREDERICKSBRG* FAIR      28  22  77 CALM      30.42R
STAFFORD*      FAIR      25  20  83 CALM      30.45R
WARRENTON      FAIR      25  23  93 CALM      30.40R
CULPEPER*      FAIR      25  19  77 CALM      30.41R
MANASSAS*      FAIR      25  21  86 CALM      30.41R
LEESBURG*      FAIR      28  25  86 W3        30.41R
WINCHESTER     FAIR      30  21  69 NW9       30.37S
FRONT ROYAL*   FAIR      30  18  59 S3        30.37R
LURAY*         FAIR      30  19  64 CALM      30.38R
$$

VAZ048-049-060>072-079>083-060500-
CENTRAL AND SOUTH CENTRAL VIRGINIA

CITY           SKY/WX    TMP DP  RH WIND       PRES   REMARKS
RICHMOND       FAIR      29  23  78 CALM      30.41R
CHESTERFIELD*  FAIR      27  10  50 CALM      30.41S
PETERSBURG*    FAIR      27  26  94 CALM      30.41S
HANOVER        FAIR      27  22  81 CALM      30.43R
TAPPAHANNOCK*  FAIR      28  24  82 CALM      30.41S
QUINTON*       FAIR      28  23  81 CALM      30.41R
CHARLOTTSVILLE FAIR      30  16  56 CALM      30.39R
GORDONSVILLE*  FAIR      27  22  84 CALM      30.40R
ORANGE*        FAIR      28  23  80 CALM      30.41S
LOUISA*        FAIR      25  18  74 CALM      30.38S
BUMPASS*       FAIR      27  18  70 CALM      30.40R
FARMVILLE*     FAIR      27  22  82 CALM      30.38F
CREWE*         FAIR      25  24  93 CALM      30.39F
FORT PICKETT*  FAIR      29  20  68 CALM      30.39F
CHASE CITY*    FAIR      28  22  79 CALM      30.39S
CLARKSVILLE*   FAIR      30  21  69 CALM      30.39F
SOUTH HILL*    FAIR      28  24  84 CALM      30.45S
LAWRENCEVILLE* FAIR      30  25  83 CALM      30.40R
EMPORIA*       FAIR      28  27  93 CALM      30.43R
$$

VAZ088>098-060500-
SOUTHEAST VIRGINIA

CITY           SKY/WX    TMP DP  RH WIND       PRES   REMARKS
NORFOLK        FAIR      39  21  48 N14       30.39S
VIRGINIA BEACH FAIR      40  23  50 N10       30.39R
NORFOLK NAVAL  FAIR      38  23  55 N7        30.41R
WEST POINT*    FAIR      27  24  87 CALM      30.42S
SALUDA*        FAIR      36  25  64 N7        30.40R
NEWPORT NEWS   FAIR      34  21  59 NE6       30.40S
LANGLEY AFB    FAIR      33  24  69 N2        30.39R
FORT EUSTIS    FAIR      36  16  44 N7        30.39R
WILLIAMSBURG*  FAIR      32  28  86 CALM      30.42R
HR EXEC AP*    FAIR      34  25  69 N3        30.42S
FRANKLIN*      FAIR      29  27  94 CALM      30.42R
US460-WAKEFLD  FAIR      29  25  85 CALM      30.41R
$$

VAZ020-022-025-037-045-060500-
WEST CENTRAL AND SOUTHWEST VIRGINIA

CITY           SKY/WX    TMP DP  RH WIND       PRES   REMARKS
STAUNTON*      FAIR      32  21  64 CALM      30.39R
WAYNESBORO*    FAIR      30  10  43 W3        30.36S
HOT SPRINGS VA FAIR      23  13  63 NW7       30.23F
LYNCHBURG      FAIR      27  16  63 CALM      30.39S
DANVILLE       FAIR      28  19  69 CALM      30.40S
SOUTH BOSTON*  FAIR      27  23  85 CALM      30.40S
MARTINSVILLE   FAIR      22  16  76 CALM      30.42S
ROANOKE        FAIR      30  15  53 CALM      30.41R
BLACKSBURG     FAIR      25  18  73 CALM      30.38R
DUBLIN*        FAIR      28  18  65 CALM      30.36S
MARION*        FAIR      26  16  66 CALM      30.35F
HILLSVILLE*    FAIR      28  13  52 CALM      30.31F
RICHLANDS*     FAIR      29   8  42 S3        30.32S
WISE*          FAIR      30   7  37 CALM      30.33S
ABINGDON*      FAIR      28  15  57 CALM      30.35S
$$

MDZ021>025-VAZ099-100-060500-
SOUTHERN MARYLAND AND THE DELMARVA PENINSULA

CITY           SKY/WX    TMP DP  RH WIND       PRES   REMARKS
PATUXENT RIVER PTCLDY    33  20  58 NW7       30.40R
BAY BRIDGE APT   N/A     34  21  60 CALM      30.39S
LEONARDTOWN    CLEAR     30  19  64 CALM      30.42R
DOVER          CLEAR     33  23  66 W6        30.36R
GEORGETOWN     CLEAR     33  23  66 W3        30.38R
EASTON         CLEAR     32  25  74 CALM      30.43R
CAMBRIDGE      CLEAR     34  23  64 NW5       30.39R
SALISBURY      CLEAR     32  23  69 NW5       30.37S
OCEAN CITY     CLEAR     33  23  66 NW7       30.38R
WALLOPS ISLAND FAIR      32  23  69 NW5       30.39R
ACCOMACK*      FAIR      36  21  55 N8        30.38S
$$

NCZ012>017-030>032-060500-
NORTH CENTRAL AND EASTERN NORTH CAROLINA

CITY           SKY/WX    TMP DP  RH WIND       PRES   REMARKS
ROANOKE RAPIDS FAIR      30  28  93 CALM      30.41R
RALEIGH        PTCLDY    32  22  66 CALM      30.40S
ELIZABETH CITY CLEAR     35  29  78 W5        30.40R
AHOSKIE*       CLEAR     29  28  94 CALM      30.42R
EDENTON*       CLEAR     34  33  95 CALM      30.42R
CURRITUCK*     CLEAR     36  30  80 CALM      30.41R
KILL DEVIL HLS CLEAR     39  27  61 N5        30.38R
MANTEO         CLEAR     39  31  73 N6        30.39R
CAPE HATTERAS  CLEAR     42  28  57 NE8G16    30.40R
TARBORO*       FAIR      32  31  97 CALM      30.43R
GOLDSBORO      CLEAR     32  32 100 CALM      30.39F
WASHINGTON     CLEAR     33  29  83 CALM      30.42R
GREENVILLE     CLEAR     32  32 100 CALM      30.42R
NEW BERN       CLEAR     32  29  88 CALM      30.42R
WILMINGTON     CLEAR     36  31  82 NE3       30.40S
$$

VAZ048-060500-
ELSEWHERE

CITY           SKY/WX    TMP DP  RH WIND       PRES   REMARKS
HARRISBURG PA  CLEAR     31  17  56 NW5       30.36S
BALTIMORE      PTCLDY    29  20  69 CALM      30.39R
ANNAPOLIS      CLEAR     32  23  69 NW3       30.39R
ANDREWS AFB    FAIR      31  18  58 NW2       30.38R
PHILADELPHIA   CLEAR     35  16  45 N5        30.37S
HENDERSON NC   CLEAR     31  26  82 CALM      30.39F
GREENSBORO     CLEAR     35  12  38 N3        30.38R
ROCKY MOUNT    CLEAR     31  30  96 CALM      30.42R
$$

VAZ100-060500-
MARINE

STATION/POSITION TIME  TEMP    WIND        PRES    WAVE   SWELL
                       AIR SEA DIR/SP/G            HT/PER HT/PER
                 (UTC) (F)     (DEG/KT/KT) (MB)    (FT/S) (FT/S)
BRANDYWINE LGT   0300   38     330/ 10/ 16 1027.9R
CAPE MAY NJ      0300   38 42  330/  9/ 15 1027.6R
LEWES DE         0300   39 42  320/ 17/ 19 1028.0R
15NM E FENWICK I 0350   40 45              1027.7R   6/ 9
OCEAN-CITY-INLET 0300   36 41  330/  7/  9 1027.4R
WACHAPREAGUE VA  0300   35 45   CALM  /  2 1029.0R
GOOSES REEF MD   0400   37 39  340/ 12/ 14 1030.1R   1/ 2
COVE POINT MD    0300   37     350/ 14/ 17 1029.5R
SOLOMONS ISLAND  0300   36 41  330/  5/  7   N/A
BISHOPS HEAD MD  0300   35 40  330/  7/  8 1027.9R
POTOMAC MD       0400   36 41  340/  8/ 10 1028.6R   1/ 2
CAMBRIDGE MD     0300   38 40  320/  9/ 11 1028.1R
LEWISETTA VA     0300   38 43  360/  6/  8 1029.0R
RAPPAHANNOCK LGT 0300          340/ 18/ 21 1028.8S
STINGRAY PT      0400   38 42  340/ 12/ 14 1029.4R   1/ 2
YORK RVR RNG VA  0300   39     340/  9/ 12 1028.5R
YORKTOWN VA      0300   38 44  340/  6/  9 1029.2R
JAMESTOWN VA     0400   35 43   30/  2/  2   N/A
DOMINION TERM VA 0300   38     360/  2/  4 1029.2R
KIPTOPEKE VA     0300      44   10/  7/ 11   N/A
CHES BAY BRIDGE  0300   40 43  340/ 15/ 17 1028.6R
CAPE HENRY VA    0300   40     340/ 18/ 20   N/A
CHESAPEAKE LGHT  0300   40     340/ 18/ 19 1029.3R
WILLOUBY STN VA  0300   39     350/  7/  8 1027.5S
CAPE HENRY BUOY  0328      46                N/A     5/ 9   2/11
1ST LANDING BUOY 0400      43                N/A     3/ 3
CAPE CHARLES BUO 0326      45                N/A     3/10   3/10
OFFSHORE WE BUOY 0321      49                N/A     6/ 9   5/ 9
64NM E OF VA BCH 0350   43 53  350/ 19/ 23 1027.6F   9/ 9   7/ 9
DUCK PIER NC     0300   42 45   10/ 15/ 17 1027.9F
44100 DUCK FRF   0324      46                N/A     6/ 9   2/11
44056 DUCK FRF   0311      45                N/A     5/10   2/11
OREGON INLET NC  0300   41 47  350/ 10/ 14 1028.4F
HATTERAS NC      0300   43 54   10/ 15/ 19 1028.3R
DIAMOND SHLS NC  0350      73  360/ 17/ 23 1028.8R   7/10   5/10
$$



USA.gov is the U.S. government's official web portal to all federal, state and local government web resources and services.